Telfer, Australia

6:07 AM AWST on June 28, 2017 (GMT +0800)
Telfer

Weather History for YTEF - November, 2013

Change the Weather History Date:

Monday, November 18, 2013

  Actual Average Record
Temperature  
Mean Temperature 86 °F -  
Max Temperature 100 °F - - ()
Min Temperature 72 °F - - ()
Cooling Degree Days 21    
Growing Degree Days 36 (Base 50)    
Moisture  
Dew Point 50 °F    
Average Humidity 27    
Maximum Humidity 50    
Minimum Humidity 8    
Precipitation  
Precipitation 0.00 in - - ()
Sea Level Pressure  
Sea Level Pressure 29.71 in    
Wind  
Wind Speed 6 mph ()    
Max Wind Speed 12 mph    
Max Gust Speed -    
T = Trace of Precipitation, MM = Missing Value Source: Averaged Metar Reports

Daily Weather History Graph

Daily Weather History Graph

Search for Another Location

Airport or City:

Trip Planner

Search our weather history database for the weather conditions in past years. The results will help you decide how hot, cold, wet, or windy it might be!

Date:

Astronomy

Nov. 18, 2013 Rise Set
Actual Time 5:00 AM AWST 6:12 PM AWST
Civil Twilight 4:36 AM AWST 6:36 PM AWST
Nautical Twilight 4:07 AM AWST 7:04 PM AWST
Astronomical Twilight 3:38 AM AWST 7:34 PM AWST
Moon 6:48 PM AWST (11/18) 5:19 AM AWST (11/18)
Length of Visible Light 13h 59m
Length of Day
13h 11m
Full, 100% of the Moon is Illuminated
Nov 18
Full
Nov 26
Last Quarter
Dec 3
New
Dec 9
First Quarter
Dec 17
Full

Hourly Weather History & Observations

Time (AWST) Temp. Heat Index Dew Point Humidity Pressure Visibility Wind Dir Wind Speed Gust Speed Precip Events Conditions
12:00 AM 77 °F - 57 °F 40% 29.77 in - SSE 4.6 mph - -  
12:00 AM 77.0 °F - 57.2 °F 50% 29.83 in - SSE 4.6 mph - N/A   Unknown
1:00 AM 75.2 °F - 55.4 °F 50% 29.80 in - ESE 6.9 mph - N/A   Unknown
2:00 AM 74 °F - 54 °F 39% 29.72 in - ESE 8.1 mph - -  
2:00 AM 73.4 °F - 53.6 °F 50% 29.77 in - ESE 8.1 mph - N/A   Unknown
3:00 AM 74 °F - 53 °F 37% 29.72 in - ENE 6.9 mph - -  
3:00 AM 73.4 °F - 53.6 °F 50% 29.77 in - ENE 6.9 mph - N/A   Unknown
4:00 AM 73.4 °F - 51.8 °F 47% 29.80 in - SSE 5.8 mph - N/A   Unknown
5:00 AM 75 °F - 49 °F 30% 29.75 in - SW 9.2 mph - -  
5:00 AM 75.2 °F - 50.0 °F 41% 29.80 in - SW 9.2 mph - N/A   Unknown
6:00 AM 76 °F - 51 °F 30% 29.76 in - South 9.2 mph - -  
6:00 AM 77.0 °F - 50.0 °F 39% 29.83 in - South 9.2 mph - N/A   Unknown
7:00 AM 80.6 °F - 51.8 °F 37% 29.80 in - ESE 9.2 mph - N/A   Unknown
8:00 AM 84 °F - 52 °F 23% 29.73 in - East 11.5 mph - -  
8:00 AM 84.2 °F - 51.8 °F 33% 29.80 in - East 11.5 mph - N/A   Unknown
9:00 AM 88 °F - 53 °F 21% 29.73 in - ENE 11.5 mph - -  
9:00 AM 87.8 °F 85.7 °F 53.6 °F 31% 29.77 in - ENE 11.5 mph - N/A   Unknown
10:00 AM 89.6 °F 87.3 °F 53.6 °F 29% 29.77 in - ENE 8.1 mph - N/A   Unknown
11:00 AM 91 °F - 52 °F 17% 29.70 in - ENE 5.8 mph - -  
11:00 AM 91.4 °F - 51.8 °F 26% 29.77 in - ENE 5.8 mph - N/A   Unknown
12:00 PM 93 °F - 52 °F 16% 29.68 in - West 6.9 mph - -  
12:00 PM 93.2 °F - 51.8 °F 24% 29.74 in - West 6.9 mph - N/A   Unknown
1:00 PM 95.0 °F - 50.0 °F 22% 29.68 in - WNW 5.8 mph - N/A   Unknown
2:00 PM 98 °F - 47 °F 10% 29.62 in - WSW 9.2 mph - -  
2:00 PM 98.6 °F - 48.2 °F 18% 29.68 in - WSW 9.2 mph - N/A   Unknown
3:00 PM 98 °F - 47 °F 10% 29.60 in - SSW 8.1 mph - -  
3:00 PM 98.6 °F - 46.4 °F 17% 29.65 in - SSW 8.1 mph - N/A   Unknown
4:00 PM 96.8 °F - 44.6 °F 17% 29.65 in - SW 8.1 mph - N/A   Unknown
5:00 PM 98 °F - 44 °F 9% 29.59 in - South 6.9 mph - -  
5:00 PM 98.6 °F - 44.6 °F 16% 29.65 in - South 6.9 mph - N/A   Unknown
6:00 PM 96 °F - 42 °F 8% 29.61 in - SW 10.4 mph - -  
6:00 PM 95.0 °F - 42.8 °F 16% 29.65 in - SW 10.4 mph - N/A   Unknown
7:00 PM 93.2 °F - 44.6 °F 19% 29.68 in - South 5.8 mph - N/A   Unknown
8:00 PM 89 °F - 47 °F 14% 29.63 in - SSE 4.6 mph - -  
8:00 PM 89.6 °F - 46.4 °F 22% 29.68 in - SSE 4.6 mph - N/A   Unknown
9:00 PM 86 °F - 46 °F 15% 29.65 in - ESE 2.3 mph - -  
9:00 PM 86.0 °F - 46.4 °F 25% 29.71 in - ESE 2.3 mph - N/A   Unknown
10:00 PM 86.0 °F - 44.6 °F 23% 29.71 in - SE 4.6 mph - N/A   Unknown
11:00 PM 85 °F - 45 °F 15% 29.64 in - Calm Calm - -  
11:00 PM 84.2 °F - 44.6 °F 25% 29.68 in - Calm Calm - N/A   Unknown